Date String (YYYY-MM-DD hh:mm:ss) UTC,Instrument flags,Ambient pressure (hPa),Sample flow (lpm),Bypass flow (lpm),Sample temperature (°C),Ambient temperature (°C),ASC tube jacket temperature (°C),LED temperature (°C),Box temperature (°C),Sample RH (%),Span deviation,Mass concentration (μg/m³),Mass concentration (μg/m³),Mass concentration (μg/m³)
DateTimeUTC,F1_M11,P_M11,Q1_M11,Q2_M11,T1_M11,T2_M11,T3_M11,T4_M11,T5_M11,U1_M11,ZSPAN_M11,X0_M11,X2_M11,X1_M11
2022-04-01 22:00:00,,0821.0,5.00,0.00,26.4,25.8,00.0,35.3,28.2,10.7,0000.0,0013.93,0005.58,0004.74
2022-04-01 22:01:00,,0821.1,5.01,0.00,26.4,25.8,00.0,35.3,28.3,10.3,0000.0,0013.21,0005.55,0004.75
2022-04-01 22:02:00,,0821.1,5.00,0.00,26.4,25.8,00.0,35.3,28.3,10.2,0000.0,0012.92,0005.58,0004.76
2022-04-01 22:03:00,,0821.1,5.00,0.00,26.5,25.9,00.0,35.3,28.3,10.4,0000.0,0012.93,0005.61,0004.77
2022-04-01 22:04:00,,0821.2,4.99,0.00,26.5,25.9,00.0,35.3,28.4,10.3,0000.0,0013.10,0005.60,0004.77
2022-04-01 22:05:00,,0821.2,4.99,0.00,26.5,25.9,00.0,35.3,28.4,10.1,0000.0,0013.30,0005.57,0004.77
2022-04-01 22:06:00,,0821.2,5.00,0.00,26.5,26.0,00.0,35.3,28.4,10.0,0000.0,0013.06,0005.60,0004.77
2022-04-01 22:07:00,,0821.2,5.00,0.00,26.5,26.0,00.0,35.4,28.4,10.0,0000.0,0011.85,0005.58,0004.77
2022-04-01 22:08:00,,0821.2,4.99,0.00,26.6,26.0,00.0,35.4,28.5,10.0,0000.0,0012.83,0005.59,0004.76
2022-04-01 22:09:00,,0821.2,5.00,0.00,26.6,26.1,00.0,35.4,28.5,09.9,0000.0,0014.06,0005.58,0004.77
2022-04-01 22:10:00,,0821.2,5.00,0.00,26.6,26.1,00.0,35.4,28.4,09.7,0000.0,0014.33,0005.61,0004.78
2022-04-01 22:11:00,,0821.2,5.01,0.00,26.6,26.1,00.0,35.4,28.5,09.9,0000.0,0014.45,0005.58,0004.78
2022-04-01 22:12:00,,0821.2,5.00,0.00,26.6,26.1,00.0,35.4,28.5,10.1,0000.0,0015.21,0005.59,0004.78
2022-04-01 22:13:00,,0821.2,5.00,0.00,26.6,26.1,00.0,35.5,28.5,10.0,0000.0,0015.85,0005.55,0004.77
2022-04-01 22:14:00,,0821.1,5.00,0.00,26.7,26.1,00.0,35.5,28.5,10.0,0000.0,0016.48,0005.50,0004.79
2022-04-01 22:15:00,,0821.1,5.00,0.00,26.7,26.1,00.0,35.5,28.6,09.9,0000.0,0016.26,0005.50,0004.79
2022-04-01 22:16:00,,0821.2,5.00,0.00,26.7,26.2,00.0,35.5,28.5,10.0,0000.0,0015.98,0005.51,0004.80
2022-04-01 22:17:00,,0821.2,5.00,0.00,26.7,26.2,00.0,35.5,28.6,10.0,0000.0,0015.84,0005.50,0004.79
2022-04-01 22:18:00,,0821.2,5.00,0.00,26.7,26.2,00.0,35.5,28.6,10.5,0000.0,0016.12,0005.50,0004.78
2022-04-01 22:19:00,,0821.3,5.00,0.00,26.7,26.2,00.0,35.6,28.6,10.4,0001.0,0015.75,0005.51,0004.78
2022-04-01 22:20:00,,0821.4,5.00,0.00,26.8,26.2,00.0,35.6,28.6,10.1,0001.5,0015.07,0005.56,0004.79
2022-04-01 22:21:00,,0821.3,5.00,0.00,26.8,26.2,00.0,35.6,28.6,10.1,0003.1,0014.10,0005.56,0004.78
2022-04-01 22:22:00,,0821.3,5.00,0.00,26.8,26.2,00.0,35.6,28.6,10.0,0000.0,0013.73,0005.56,0004.77
2022-04-01 22:23:00,,0821.4,5.00,0.00,26.8,26.2,00.0,35.6,28.6,10.1,0000.0,0013.49,0005.54,0004.76
2022-04-01 22:24:00,,0821.4,4.98,0.00,26.8,26.2,00.0,35.6,28.6,10.2,0000.0,0013.74,0005.56,0004.75
2022-04-01 22:25:00,,0821.4,4.99,0.00,26.8,26.1,00.0,35.6,28.6,09.6,0000.0,0013.18,0005.55,0004.72
2022-04-01 22:26:00,,0821.4,5.00,0.00,26.8,26.2,00.0,35.6,28.6,08.5,0000.0,0012.89,0005.47,0004.65
2022-04-01 22:27:00,,0821.4,5.00,0.00,26.8,26.2,00.0,35.7,28.6,09.0,0000.0,0013.51,0005.40,0004.58
2022-04-01 22:28:00,,0821.4,5.00,0.00,26.8,26.2,00.0,35.7,28.6,06.9,0000.0,0013.76,0005.27,0004.46
2022-04-01 22:29:00,,0821.4,5.00,0.00,26.8,26.2,00.0,35.7,28.7,06.9,0000.0,0013.01,0005.10,0004.32
2022-04-01 22:30:00,,0821.3,4.99,0.00,26.8,26.3,00.0,35.7,28.7,05.5,0000.0,0012.27,0004.92,0004.14
2022-04-01 22:31:00,,0821.2,4.99,0.00,26.9,26.3,00.0,35.7,28.7,05.3,0000.0,0012.46,0004.69,0003.94
2022-04-01 22:32:00,,0821.2,5.00,0.00,26.9,26.3,00.0,35.7,28.8,05.6,0000.0,0012.45,0004.45,0003.74
2022-04-01 22:33:00,,0821.1,5.00,0.00,26.9,26.3,00.0,35.7,28.8,05.2,0000.0,0012.05,0004.24,0003.57
2022-04-01 22:34:00,,0821.1,4.99,0.00,26.9,26.3,00.0,35.7,28.8,05.0,0000.0,0011.25,0004.08,0003.39
2022-04-01 22:35:00,,0821.1,5.00,0.00,26.9,26.4,00.0,35.8,28.8,05.1,0000.0,0010.64,0003.89,0003.22
2022-04-01 22:36:00,,0821.1,5.00,0.00,26.9,26.4,00.0,35.8,28.8,05.3,0000.0,0010.35,0003.69,0003.00
2022-04-01 22:37:00,,0821.1,5.00,0.00,27.0,26.4,00.0,35.8,28.8,05.2,0000.0,0010.22,0003.57,0002.76
2022-04-01 22:38:00,,0821.1,5.00,0.00,27.0,26.4,00.0,35.8,28.8,05.2,0000.0,0009.21,0003.45,0002.55
2022-04-01 22:39:00,,0821.1,5.00,0.00,27.0,26.4,00.0,35.8,28.9,05.2,0000.0,0008.64,0003.38,0002.42
2022-04-01 22:40:00,,0821.1,5.01,0.00,27.0,26.5,00.0,35.8,28.9,05.1,0000.0,0008.62,0003.34,0002.34
2022-04-01 22:41:00,,0821.1,5.00,0.00,27.0,26.5,00.0,35.8,28.9,05.0,0000.0,0008.71,0003.33,0002.30
2022-04-01 22:42:00,,0821.1,5.00,0.00,27.1,26.5,00.0,35.9,28.9,04.9,0000.0,0007.83,0003.32,0002.29
2022-04-01 22:43:00,,0821.1,4.99,0.00,27.1,26.5,00.0,35.9,29.0,05.0,0000.0,0007.47,0003.34,0002.30
2022-04-01 22:44:00,,0821.1,4.99,0.00,27.1,26.5,00.0,35.9,29.0,04.8,0000.0,0007.85,0003.35,0002.30
2022-04-01 22:45:00,,0821.0,4.99,0.00,27.1,26.5,00.0,35.9,29.0,04.8,0000.0,0007.75,0003.32,0002.28
2022-04-01 22:46:00,,0821.0,4.99,0.00,27.1,26.5,00.0,35.9,29.0,04.8,0000.0,0007.06,0003.29,0002.25
2022-04-01 22:47:00,,0821.0,4.99,0.00,27.1,26.5,00.0,35.9,29.0,04.8,0000.0,0007.08,0003.29,0002.22
2022-04-01 22:48:00,,0821.0,5.00,0.00,27.1,26.5,00.0,35.9,29.0,05.0,0000.0,0007.14,0003.29,0002.21
2022-04-01 22:49:00,,0821.0,5.01,0.00,27.1,26.6,00.0,36.0,29.0,04.8,0000.0,0007.96,0003.31,0002.21
2022-04-01 22:50:00,,0821.0,5.01,0.00,27.2,26.6,00.0,36.0,29.0,04.8,0000.0,0008.04,0003.29,0002.19
2022-04-01 22:51:00,,0821.0,5.00,0.00,27.2,26.6,00.0,36.0,29.0,04.8,0000.0,0008.26,0003.27,0002.19
2022-04-01 22:52:00,,0821.0,5.00,0.00,27.2,26.6,00.0,36.0,29.0,04.8,0000.0,0008.32,0003.25,0002.21
2022-04-01 22:53:00,,0821.1,5.00,0.00,27.2,26.6,00.0,36.0,29.0,04.8,0000.0,0008.29,0003.26,0002.22
2022-04-01 22:54:00,,0821.0,5.00,0.00,27.2,26.6,00.0,36.0,29.1,04.7,0000.0,0008.25,0003.26,0002.21
2022-04-01 22:55:00,,0821.1,5.00,0.00,27.2,26.6,00.0,36.0,29.0,04.6,0000.0,0007.79,0003.22,0002.19
2022-04-01 22:56:00,,0821.1,5.00,0.00,27.2,26.6,00.0,36.0,29.0,04.4,0000.0,0007.82,0003.23,0002.19
2022-04-01 22:57:00,,0821.1,4.99,0.00,27.2,26.6,00.0,36.0,29.1,04.6,0000.0,0007.70,0003.21,0002.20
2022-04-01 22:58:00,,0821.1,5.01,0.00,27.2,26.6,00.0,36.1,29.1,04.8,0000.0,0007.52,0003.19,0002.22
2022-04-01 22:59:00,,0821.0,5.01,0.00,27.2,26.6,00.0,36.1,29.1,04.7,0000.0,0007.61,0003.18,0002.20
